Weather in Nagasaki

Japan     38°21′00″N   140°16′37″E
temp.,
°C
wind,
m/s
gust,
m/s
humid.,
%
clouds,
%
prec.,
mm/h
press.,
hPa
HPBL,
m
28 november, sun
sun2800:00+2ssw249298 0.8 1027125
03:00+2w1199100 4.1 1028307
06:00+3sw129646 1.9 102981
09:00+5nw26736 2.1 1031908
12:00+7nw585735 0.2 10301728
15:00+6wnw37655 0.3 10311304
18:00+3ssw22795 0.0 103318
21:00+1ssw22845 0.0 103333
29 november, mon
mon2900:000ssw22865 0.0 103338
03:000s23875 0.0 103250
06:000s22865 0.0 103241
09:00+4sw1269100 0.0 1031289
12:00+7ssw1259100 0.0 1029591
15:00+7sse116779 0.0 102879
18:00+2ssw11845 0.0 102914
21:00+1ssw2285100 0.0 102927
30 november, tue
tue3000:00+1ssw1176100 0.0 102923
03:00+1s117053 0.0 102810
06:00+1sse006966 0.0 102610
09:00+5sse12595 0.0 1026175
12:00+10ene0244100 0.0 1021565
15:00+9se0059100 0.0 101812
18:00+4s1179100 0.0 101712
21:00+5wsw1180100 0.0 101419
1 december, wed
wed100:00+5sw1187100 0.0 101112
03:00+9sse2989100 0.4 1005389
06:00+12s2584100 0.1 999144
09:00+8wsw51284100 14.6 10021082
12:00+6wsw61687100 2.8 10011694
15:00+6wsw8187349 3.3 10011798
18:00+4w4128592 1.2 10041412
21:00+2wsw41389100 2.7 10051244
2 december, thu
thu200:00+1w61781100 2.4 10081710
03:00+1w7168055 3.1 10091462
06:00+1w6168148 1.5 10131376
09:00+3w5137644 2.0 10161530
12:00+6wsw5116538 0.3 10151621
15:00+6ssw4107544 0.3 10151348
18:00+2s24893 0.0 101777
21:00+1ssw23863 0.0 101857